Showing default

UMBRA-11, 66748

Orbit data source: Space-Track

UMBRA-11, 66748 is a payload satellite owned by Umbra Labs (US) in SSO that was launched on Fri, 28 Nov 2025 UTC via an FALCON 9 launch vehicle from the Air Force Western Test Range (AFWTR). Payload-class satellites include a variety of spacecraft equipped with specific instruments for various scientific and technological missions. These include communications satellites like Starlink; space stations such as the ISS; scientific satellites like the Hubble; Earth observation satellites from companies like Planet Labs, Umbra, and HawkEye 360; GPS; miniature CubeSats for education and research; and military/defense satellites.

Loading next visibility...
Identifier
66748, 2025-276CL
Orbit
SSO
Country
Flag of USUS
Related business
Manufacturer
Umbra Labs
Mission
Operational Commercial Radar Imaging
Bus & Motor
ESPASAT?, Unknown motor
Mass
84 kg wet, 79 kg dry
Launch date (UTC)
2025-11-28 (9 months ago)
Launch vehicle
FALCON 9
Launch site
Air Force Western Test Range (AFWTR)
Object type
Payload
Rocket body
Debris
Shape & HBR
Box + 2 Pan + 1 Dish, 2.0 m
Radar Cross Section
6.513 m², Large (>1 m²)

Expand to show TLE details & history
Last TLE update: 14 hours ago

TLE from 14 hours ago
0 UMBRA-11
1 66748U 25276CL  26238.19528965  .00015837  00000-0  55917-3 0  9993
2 66748  97.4153 312.5048 0003553  94.9206 265.2440 15.29301108 41188
Epoch: 2026-08-26T04:41Z
TLE epoch observation values (Epoch: 2026-08-26T04:41:13.025Z)
Latitude
-0.00003°
Longitude
-92.25124°
Altitude
481.206 km
Speed
7.625 km/s
True Right ascension
20h 50m 01s
True Declination
0° 00' 00"
Sunlit
Object was in full shadow at epoch
Visualization orbit readout
Latitude
Unknown
Longitude
Unknown
Altitude
Unknown
Speed
Unknown
Apparent Right ascension
Unknown
Apparent Declination
Unknown
Sunlit
N/A
Visualization observer readout
Local Sidereal Time
09:52:00
Azimuth
Unknown
Elevation
Unknown
Doppler factor
Unknown
Orbital elements
Apogee altitude
477.289 km
Perigee altitude
472.419 km
Semi-major axis
6,852.991 km
Eccentricity
0.00036
Inclination
97.4153°
RAAN
312.5048°
Arg. of periapsis
94.9206°
True anomaly
265.20343°
Mean anomaly
265.244°
Eccentric anomaly
265.22371°
Mean motion
3.82581 °/min
Orbital period
94.1 mins
BSTAR
0.00055917
Loading maneuver chart data...
Computing Atmospheric mass density...
Loading historical data...
Loading historical data...
Loading historical data...
Loading historical data...
Loading historical data...
Loading historical data...
Loading historical data...

Documentation

Showing up to 5 results
|